User: anonymous   Login
Location: Franzen
(48.6167°N, 15.3833°E)
Time: 01:09:56
(UTC+00:00)
Language:

SJ-6B - Orbit

View from above orbital plane
View from above orbital plane
View from above satellite
View from above satellite

Ground track
Ground track

The orbit data is extracted from the following two-line orbital elements,

1 28415U 04035C   21174.54206671  .00000571  00000-0  41115-4 0  9997
2 28415  97.5640 216.9746 0051710 164.8134 195.4661 15.07133671919521
Epoch (UTC): 23 June 2021 13:00:34
Eccentricity: 0.0051710
inclination: 97.5640°
perigee height: 509 km
apogee height: 581 km
right ascension of ascending node: 216.9746°
argument of perigee: 164.8134°
revolutions per day: 15.07133671
mean anomaly at epoch: 195.4661°
orbit number at epoch: 91952

The dashed part of the orbit path shows where the satellite is in the earth's shadow,  

DLR